This is the latest recevied weather packets stored in our database for station/object TG8ARF-18. If no packets are shown the sender has not sent any weather packets the latest 10 day(s).
| Time | Temp. | Humidity | Pressure | Rain* | Wind** | Luminosity | Snow |
|---|---|---|---|---|---|---|---|
| 1777613003 | 15° C | 90% | 1016 hPa | 0 mm | - | - | - |
| 1777612403 | 13.89° C | 90% | 1016 hPa | 0 mm | - | - | - |
| 1777611802 | 12.78° C | 90% | 1016 hPa | 0 mm | - | - | - |
| 1777611201 | 15.56° C | 87% | 1016 hPa | 0 mm | - | - | - |
| 1777610601 | 14.44° C | 87% | 1016 hPa | 0 mm | - | - | - |
| 1777610000 | 13.33° C | 87% | 1016 hPa | 0 mm | - | - | - |
| 1777609400 | 15.56° C | 90% | 1016 hPa | 0 mm | - | - | - |
| 1777608799 | 14.44° C | 90% | 1016 hPa | 0 mm | - | - | - |
| 1777608198 | 13.33° C | 90% | 1016 hPa | 0 mm | - | - | - |
| 1777607598 | 15.56° C | 90% | 1016 hPa | 0 mm | - | - | - |
| 1777606997 | 14.44° C | 90% | 1016 hPa | 0 mm | - | - | - |
| 1777606396 | 13.33° C | 90% | 1016 hPa | 0 mm | - | - | - |
| 1777605796 | 15.56° C | 92% | 1016 hPa | 0 mm | - | - | - |
| 1777605195 | 14.44° C | 92% | 1016 hPa | 0 mm | - | - | - |
| 1777604595 | 13.33° C | 92% | 1016 hPa | 0 mm | - | - | - |
| 1777603994 | 15° C | 92% | 1016 hPa | 0 mm | - | - | - |
| 1777603393 | 13.89° C | 92% | 1015 hPa | 0 mm | - | - | - |
| 1777602792 | 15° C | 91% | 1015 hPa | 0 mm | - | - | - |
| 1777602192 | 13.89° C | 91% | 1015 hPa | 0 mm | - | - | - |
| 1777601591 | 16.11° C | 92% | 1015 hPa | 0 mm | - | - | - |
| 1777600990 | 15° C | 92% | 1015 hPa | 0 mm | - | - | - |
| 1777600390 | 13.89° C | 92% | 1015 hPa | 0 mm | - | - | - |
| 1777599789 | 16.11° C | 89% | 1014 hPa | 0 mm | - | - | - |
| 1777599189 | 15° C | 89% | 1014 hPa | 0 mm | - | - | - |
| 1777598588 | 13.89° C | 89% | 1014 hPa | 0 mm | - | - | - |
* Rain latest hour (hover to see other rain measurements)
** Current wind speed in m/s (hover to see current wind gust speed)